Flag for Japan Weather past 2 weeks in Himeji, Japan

Now
79 °F

Scattered clouds.


Feels Like: 82 °F
Forecast: 74 / 90 °F
Wind: 9 mph from Northeast

Location: Osaka International Airport

Current Time: Jul 30, 2014 at 7:14:04 AM

Latest Report: Jul 30, 2014 at 6:00 AM


Visibility: N/A

Pressure: 29.95 "Hg

Humidity: 79%

Dew point: 72 °F

Location of HimejiLocation

Historic Weather in Himeji — Graph

°F

Himeji temperature yesterday

Maximum temperature yesterday: 93 °F (at 2:00 PM)
Minimum temperature yesterday: 72 °F (at 5:00 AM)
Average temperature yesterday: 86 °F

Past Weeks' High & Low Weather Summary

 TemperatureHumidityPressure
High99 °F (Jul 25, 4:00 PM)94% (Jul 15, 6:00 AM)29.95 "Hg (Jul 15, 6:00 AM)
Low70 °F (Jul 28, 5:00 AM)41% (Jul 28, 5:00 PM)29.65 "Hg (Jul 23, 5:00 PM)
Average85 °F65%29.83 "Hg
* Reported Jul 15 6:00 AM — Jul 30 6:00 AM, Himeji, Weather by CustomWeather, © 2014

Note: Actual official high and low records may vary slightly from our data, if they occured in-between our weather recording intervals... More about our weather records

Advertising

Himeji weather history for previous 24 hours

 ConditionsComfort  
Time TempWeatherWind HumidityBarometerVisibility
6:00 AM
Jul 30
79 °FScattered clouds.9 mph79%29.95 "HgN/A
5:00 AM79 °FPassing clouds.8 mph79%29.95 "HgN/A
8:00 PM
Jul 29
86 °FPassing clouds.8 mph62%29.89 "HgN/A
7:00 PM86 °FScattered clouds.9 mph59%29.89 "HgN/A
6:00 PM86 °FScattered clouds.15 mph62%29.86 "HgN/A
5:00 PM90 °FPassing clouds.10 mph52%29.83 "HgN/A
4:00 PM91 °FPassing clouds.10 mph49%29.83 "HgN/A
3:00 PM93 °FPassing clouds.9 mph47%29.83 "HgN/A
2:00 PM93 °FPassing clouds.8 mph44%29.86 "HgN/A
1:00 PM91 °FScattered clouds.7 mph46%29.86 "HgN/A
12:00 PM90 °FBroken clouds.6 mph49%29.86 "HgN/A
11:00 AM90 °FBroken clouds.6 mph52%29.89 "HgN/A
10:46 AM90 °FBroken clouds.5 mph52%29.89 "HgN/A
10:00 AM86 °FPartly sunny.8 mph55%29.89 "HgN/A
9:00 AM84 °FPartly sunny.10 mph58%29.89 "HgN/A
8:00 AM81 °FScattered clouds.13 mph66%29.89 "HgN/A
7:00 AM79 °FScattered clouds.10 mph70%29.89 "HgN/A
Weather by CustomWeather, © 2014

See weather overviewHow to use our weather pages